Weather History for KCKV - September, 2013

Change the Weather History Date:

Monday, September 16, 2013

  Actual Average Record
Temperature  
Mean Temperature 68 °F -  
Max Temperature 79 °F - 97 °F (1948)
Min Temperature 57 °F - 43 °F (1961)
Degree Days  
Heating Degree Days 0    
Month to date heating degree days 2  
Since 1 July heating degree days 2  
Cooling Degree Days 3    
Month to date cooling degree days 144  
Growing Degree Days 18 (Base 50)    
Moisture  
Dew Point 61 °F    
Average Humidity 78    
Maximum Humidity 100    
Minimum Humidity 56    
Precipitation  
Precipitation T in - 1.36 in (1988)
Month to date precipitation 1.32  
Sea Level Pressure  
Sea Level Pressure 30.15 in    
Wind  
Wind Speed 3 mph (NNE)    
Max Wind Speed 10 mph    
Max Gust Speed 14 mph    
Visibility 9 miles    
Events Rain    
T = Trace of Precipitation, MM = Missing Value Source: NWS Daily Summary

Daily Weather History Graph

Daily Weather History Graph

Search for Another Location

Airport or City:

Trip Planner

Search our weather history database for the weather conditions in past years. The results will help you decide how hot, cold, wet, or windy it might be!

Date:

Astronomy

Sep. 16, 2013 Rise Set
Actual Time 6:32 AM CDT 6:55 PM CDT
Civil Twilight 6:07 AM CDT 7:21 PM CDT
Nautical Twilight 5:36 AM CDT 7:51 PM CDT
Astronomical Twilight 5:05 AM CDT 8:22 PM CDT
Moon 5:00 PM CDT (9/16) 3:22 AM CDT (9/16)
Length of Visible Light 13h 14m
Length of Day
12h 22m
Waxing Gibbous, 90% of the Moon is Illuminated
Sep 16
Waxing Gibbous
Sep 19
Full
Sep 26
Last Quarter
Oct 4
New
Oct 11
First Quarter

Hourly Weather History & Observations

Time (CDT) Temp. Dew Point Humidity Pressure Visibility Wind Dir Wind Speed Gust Speed Precip Events Conditions
12:52 AM 57.9 °F 55.9 °F 93% 30.10 in 10.0 mi Calm Calm - N/A   Clear
1:52 AM 57.9 °F 55.9 °F 93% 30.11 in 9.0 mi Calm Calm - N/A   Clear
2:52 AM 57.9 °F 57.0 °F 97% 30.11 in 7.0 mi Calm Calm - N/A   Clear
3:52 AM 59.0 °F 57.0 °F 93% 30.11 in 8.0 mi Calm Calm - N/A   Overcast
4:52 AM 61.0 °F 59.0 °F 93% 30.11 in 8.0 mi Calm Calm - N/A   Overcast
5:52 AM 61.0 °F 59.0 °F 93% 30.12 in 10.0 mi Calm Calm - N/A   Overcast
6:52 AM 62.1 °F 60.1 °F 93% 30.13 in 7.0 mi Calm Calm - N/A   Partly Cloudy
7:52 AM 64.0 °F 60.1 °F 87% 30.14 in 10.0 mi Calm Calm - N/A   Clear
8:52 AM 70.0 °F 60.1 °F 71% 30.16 in 10.0 mi Calm Calm - N/A   Partly Cloudy
9:52 AM 73.0 °F 61.0 °F 66% 30.17 in 10.0 mi WNW 4.6 mph - N/A   Mostly Cloudy
10:52 AM 73.9 °F 60.1 °F 62% 30.18 in 10.0 mi North 4.6 mph - N/A   Mostly Cloudy
11:52 AM 73.9 °F 60.1 °F 62% 30.17 in 10.0 mi North 5.8 mph - 0.00 in Rain Light Rain
12:52 PM 77.0 °F 61.0 °F 58% 30.17 in 10.0 mi Variable 3.5 mph - 0.00 in   Scattered Clouds
1:52 PM 77.0 °F 60.1 °F 56% 30.17 in 10.0 mi NE 3.5 mph - N/A   Clear
2:52 PM 79.0 °F 62.1 °F 56% 30.14 in 10.0 mi NE 3.5 mph - N/A   Clear
3:52 PM 77.0 °F 64.0 °F 64% 30.14 in 10.0 mi NNW 5.8 mph - N/A   Mostly Cloudy
4:47 PM 75.2 °F 64.4 °F 69% 30.15 in 10.0 mi North 8.1 mph - N/A   Overcast
4:52 PM 75.0 °F 64.0 °F 69% 30.14 in 10.0 mi North 8.1 mph - N/A   Overcast
5:52 PM 73.9 °F 63.0 °F 68% 30.15 in 10.0 mi NNE 8.1 mph - N/A   Overcast
6:52 PM 72.0 °F 64.0 °F 76% 30.14 in 10.0 mi NE 5.8 mph - N/A   Overcast
7:52 PM 71.1 °F 63.0 °F 75% 30.15 in 10.0 mi ENE 5.8 mph - N/A   Overcast
8:52 PM 70.0 °F 63.0 °F 78% 30.16 in 10.0 mi NE 4.6 mph - N/A   Overcast
9:20 PM 69.8 °F 62.6 °F 78% 30.18 in 9.0 mi NE 5.8 mph - N/A   Overcast
9:42 PM 69.8 °F 62.6 °F 78% 30.18 in 9.0 mi NE 4.6 mph - N/A   Overcast
9:52 PM 69.1 °F 63.0 °F 81% 30.17 in 9.0 mi NNE 3.5 mph - N/A   Overcast
10:52 PM 66.9 °F 63.0 °F 87% 30.18 in 9.0 mi NNE 4.6 mph - N/A   Overcast
11:52 PM 64.9 °F 62.1 °F 90% 30.17 in 8.0 mi Calm Calm - N/A   Partly Cloudy